Tracking 20382 objects as of 24-Feb-2020
HD Live streaming from Space Station
objects crossing your sky now
Track the group of recently launched Starlink satellites

COSMOS 1581

Track COSMOS 1581 now!
COSMOS 1581 is classified as:


NORAD ID: 15095
Int'l Code: 1984-071A
Perigee: 3,455.6 km
Apogee: 37,075.2 km
Inclination: 66.0 °
Period: 721.1 minutes
Semi major axis: 26636 km
RCS: 9.1322 m2 (large)
Launch date: July 3, 1984
Source: Commonwealth of Independent States (former USSR) (CIS)
Launch site: PLESETSK MISSILE AND SPACE COMPLEX (PKMTR)
aabbcc
Your satellite tracking list
Your tracking list is empty




NASA's NSSDC Master Catalog

Two Line Element Set (TLE):
1 15095U 84071A   20055.07610805  .00001030  00000-0  00000+0 0  9992
2 15095  66.0419 226.8404 6310848  44.6641 351.4477  1.99705752234587
Source of the keplerian elements: AFSPC